| time (UTC) | temp F | wind direction | speed knots | gust knots | rain 1hr in | rain 24hr in | rain mn in | humidity % | barometer mb |
| 20260506014125 | 38 | 132 | 7.8 | 13.0 | 0.12 | 3.98 | 0.21 | 97 | 1011.3 |
| 20260506013631 | 38 | 137 | 9.6 | 13.0 | 0.16 | 3.98 | 0.21 | 97 | 1011.1 |
| 20260506013136 | 38 | 136 | 7.8 | 13.0 | 0.16 | 3.98 | 0.21 | 97 | 1011.1 |
| 20260506012624 | 38 | 121 | 7.8 | 13.0 | 0.16 | 3.98 | 0.21 | 97 | 1011.2 |
| 20260506012129 | 38 | 128 | 9.6 | 13.9 | 0.20 | 3.94 | 0.20 | 97 | 1011.5 |
| 20260506011633 | 38 | 138 | 8.7 | 13.9 | 0.28 | 3.94 | 0.20 | 97 | 1011.2 |
| 20260506011138 | 38 | 161 | 8.7 | 12.2 | 0.28 | 3.94 | 0.20 | 97 | 1011.2 |
| 20260506010642 | 38 | 138 | 8.7 | 12.2 | 0.28 | 3.94 | 0.20 | 97 | 1011.5 |
| 20260506010127 | 38 | 94 | 3.5 | 11.3 | 0.24 | 3.90 | 0.19 | 97 | 1011.5 |
| 20260506005631 | 38 | 121 | 7.0 | 13.0 | 0.28 | 3.90 | 0.19 | 97 | 1011.6 |
| 20260506005135 | 38 | 133 | 6.1 | 13.9 | 0.24 | 3.86 | 0.18 | 97 | 1011.6 |
| 20260506004639 | 38 | 129 | 10.4 | 15.6 | 0.31 | 3.86 | 0.18 | 97 | 1011.6 |
| 20260506004142 | 38 | 134 | 7.0 | 17.4 | 0.31 | 3.86 | 0.18 | 97 | 1011.7 |
| 20260506003631 | 38 | 142 | 11.3 | 17.4 | 0.31 | 3.82 | 0.17 | 97 | 1011.7 |
| 20260506003135 | 38 | 303 | 10.4 | 17.4 | 0.31 | 3.82 | 0.17 | 97 | 1011.6 |
| 20260506002639 | 38 | 117 | 9.6 | 14.8 | 0.31 | 3.82 | 0.17 | 97 | 1011.7 |
| 20260506002125 | 38 | 128 | 9.6 | 14.8 | 0.20 | 3.70 | 0.14 | 97 | 1011.9 |
| 20260506001630 | 38 | 121 | 9.6 | 15.6 | 0.16 | 3.66 | 0.13 | 97 | 1012.0 |
| 20260506001135 | 38 | 155 | 10.4 | 16.5 | 0.16 | 3.66 | 0.13 | 97 | 1012.1 |
| 20260506000640 | 39 | 124 | 12.2 | 18.2 | 0.20 | 3.66 | 0.13 | 97 | 1012.0 |
| 20260506000126 | 38 | 126 | 8.7 | 17.4 | 0.24 | 3.66 | 0.13 | 97 | 1012.0 |
| 20260505235631 | 38 | 126 | 13.0 | 17.4 | 0.24 | 3.62 | 0.12 | 97 | 1011.9 |
| 20260505235136 | 38 | 123 | 9.6 | 13.9 | 0.24 | 3.62 | 0.12 | 97 | 1012.0 |
| 20260505234625 | 38 | 126 | 7.8 | 13.9 | 0.20 | 3.54 | 0.10 | 97 | 1012.0 |
| 20260505234130 | 38 | 53 | 8.7 | 12.2 | 0.35 | 3.54 | 0.10 | 97 | 1012.0 |
| 20260505233634 | 38 | 141 | 7.0 | 12.2 | 0.31 | 3.50 | 0.09 | 96 | 1012.1 |
| 20260505233139 | 38 | 161 | 7.8 | 15.6 | 0.31 | 3.50 | 0.09 | 96 | 1012.3 |
| 20260505232624 | 38 | 148 | 10.4 | 15.6 | 0.31 | 3.50 | 0.09 | 96 | 1012.2 |
| 20260505232129 | 38 | 71 | 7.0 | 9.6 | 0.31 | 3.50 | 0.09 | 96 | 1012.2 |
| 20260505231634 | 38 | 15 | 3.5 | 7.8 | 0.31 | 3.50 | 0.09 | 96 | 1012.1 |
| 20260505231139 | 38 | 61 | 3.5 | 6.1 | 0.31 | 3.50 | 0.09 | 96 | 1012.3 |
| 20260505230624 | 38 | 166 | 2.6 | 4.3 | 0.31 | 3.46 | 0.08 | 96 | 1012.5 |
| 20260505230130 | 38 | 182 | 1.7 | 4.3 | 0.24 | 3.39 | 0.06 | 96 | 1012.5 |
| 20260505225634 | 38 | 190 | 0.9 | 5.2 | 0.24 | 3.39 | 0.06 | 96 | 1012.5 |
| 20260505225124 | 38 | 178 | 3.5 | 8.7 | 0.24 | 3.39 | 0.06 | 96 | 1012.5 |
| 20260505224629 | 38 | 132 | 6.1 | 8.7 | 0.16 | 3.31 | 0.04 | 96 | 1012.4 |
| 20260505224134 | 38 | 130 | 3.5 | 6.1 | 0.04 | 3.19 | 0.01 | 96 | 1012.3 |
| 20260505223637 | 38 | 65 | 0.9 | 7.8 | 0.08 | 3.19 | 0.01 | 96 | 1012.4 |
| 20260505223123 | 38 | 143 | 4.3 | 7.0 | 0.12 | 3.19 | 0.01 | 96 | 1012.5 |
| 20260505222627 | 38 | 278 | 1.7 | 7.8 | 0.16 | 3.19 | 0.01 | 96 | 1012.5 |
| 20260505222132 | 38 | 79 | 4.3 | 7.8 | 0.20 | 3.19 | 0.01 | 95 | 1012.6 |
| 20260505221636 | 38 | 92 | 5.2 | 7.8 | 0.24 | 3.19 | 0.01 | 96 | 1012.7 |
| 20260505221140 | 38 | 67 | 2.6 | 3.5 | 0.24 | 3.15 | 0.00 | 96 | 1012.7 |
| 20260505220623 | 38 | 69 | 1.7 | 4.3 | 0.28 | 3.15 | 0.80 | 96 | 1012.7 |
| 20260505220133 | 37 | 46 | 2.6 | 4.3 | 0.28 | 3.15 | 0.80 | 96 | 1012.7 |
| 20260505215638 | 37 | 103 | 0.9 | 2.6 | 0.31 | 3.15 | 0.80 | 96 | 1012.9 |
| 20260505215123 | 37 | 140 | 0.9 | 6.1 | 0.31 | 3.15 | 0.80 | 96 | 1012.9 |
| 20260505214628 | 37 | 69 | 3.5 | 6.1 | 0.35 | 3.15 | 0.80 | 96 | 1013.0 |
| 20260505214131 | 37 | 109 | 0.9 | 5.2 | 0.35 | 3.15 | 0.80 | 96 | 1013.0 |
| 20260505213636 | 37 | 119 | 1.7 | 5.2 | 0.31 | 3.11 | 0.79 | 96 | 1013.0 |
| 20260505213140 | 37 | 85 | 2.6 | 8.7 | 0.28 | 3.07 | 0.78 | 96 | 1013.2 |
| 20260505212626 | 37 | 347 | 4.3 | 8.7 | 0.24 | 3.03 | 0.77 | 96 | 1013.3 |
| 20260505212131 | 38 | 60 | 2.6 | 3.5 | 0.20 | 2.99 | 0.76 | 96 | 1013.4 |
| 20260505211635 | 38 | 96 | 1.7 | 5.2 | 0.16 | 2.95 | 0.75 | 96 | 1013.4 |
| 20260505211139 | 38 | 138 | 3.5 | 6.1 | 0.12 | 2.91 | 0.74 | 97 | 1013.4 |
| 20260505210628 | 39 | 131 | 0.9 | 6.1 | 0.08 | 2.87 | 0.73 | 96 | 1013.4 |
| 20260505210133 | 39 | 131 | 2.6 | 7.8 | 0.08 | 2.87 | 0.73 | 96 | 1013.4 |
| 20260505205638 | 39 | 147 | 3.5 | 7.8 | 0.04 | 2.83 | 0.72 | 96 | 1013.4 |
| 20260505205142 | 39 | 135 | 1.7 | 6.1 | 0.08 | 2.83 | 0.72 | 97 | 1013.3 |
| 20260505204627 | 38 | 132 | 2.6 | 4.3 | 0.04 | 2.80 | 0.71 | 97 | 1013.4 |
| 20260505204132 | 38 | 89 | 3.5 | 5.2 | 0.08 | 2.80 | 0.71 | 97 | 1013.4 |
| 20260505203636 | 38 | 78 | 2.6 | 3.5 | 0.08 | 2.80 | 0.71 | 97 | 1013.4 |
| 20260505203140 | 38 | 178 | 1.7 | 5.2 | 0.08 | 2.80 | 0.71 | 97 | 1013.4 |
| 20260505202625 | 38 | 123 | 0.9 | 4.3 | 0.08 | 2.80 | 0.71 | 97 | 1013.4 |
| 20260505202130 | 38 | 44 | 2.6 | 4.3 | 0.08 | 2.80 | 0.71 | 97 | 1013.4 |
| 20260505201637 | 38 | 53 | 1.7 | 2.6 | 0.08 | 2.80 | 0.71 | 97 | 1013.4 |
| 20260505201141 | 38 | 45 | 0.9 | 2.6 | 0.08 | 2.80 | 0.71 | 97 | 1013.4 |
| 20260505200625 | 38 | 31 | 0.9 | 1.7 | 0.08 | 2.80 | 0.71 | 97 | 1013.4 |
| 20260505200129 | 38 | 13 | 0.9 | 3.5 | 0.08 | 2.80 | 0.71 | 97 | 1013.5 |
| 20260505195632 | 39 | 15 | 1.7 | 3.5 | 0.08 | 2.80 | 0.71 | 96 | 1013.5 |
| 20260505195136 | 39 | 167 | 0.9 | 2.6 | 0.04 | 2.76 | 0.70 | 96 | 1013.6 |
| 20260505194641 | 38 | 221 | 0.0 | 2.6 | 0.08 | 2.76 | 0.70 | 96 | 1013.5 |
| 20260505194126 | 38 | 221 | 1.7 | 2.6 | 0.08 | 2.72 | 0.69 | 96 | 1013.4 |
| 20260505193631 | 38 | 219 | 0.9 | 2.6 | 0.08 | 2.72 | 0.69 | 96 | 1013.4 |
| 20260505193134 | 38 | 219 | 0.9 | 2.6 | 0.08 | 2.72 | 0.69 | 96 | 1013.4 |
| 20260505192623 | 38 | 218 | 0.9 | 2.6 | 0.12 | 2.72 | 0.69 | 96 | 1013.3 |
| 20260505192130 | 38 | 219 | 0.9 | 2.6 | 0.12 | 2.72 | 0.69 | 96 | 1013.3 |
| 20260505191634 | 38 | 215 | 0.9 | 5.2 | 0.12 | 2.72 | 0.69 | 96 | 1013.2 |
| 20260505191138 | 39 | 309 | 3.5 | 5.2 | 0.12 | 2.72 | 0.69 | 96 | 1013.2 |
| 20260505190642 | 39 | 82 | 1.7 | 4.3 | 0.12 | 2.72 | 0.69 | 96 | 1013.3 |
| 20260505190127 | 39 | 155 | 0.9 | 7.0 | 0.12 | 2.72 | 0.69 | 96 | 1013.3 |
| 20260505185631 | 39 | 172 | 3.5 | 7.0 | 0.12 | 2.72 | 0.69 | 96 | 1013.2 |
| 20260505185134 | 39 | 165 | 2.6 | 6.1 | 0.16 | 2.72 | 0.69 | 96 | 1013.2 |
| 20260505184638 | 39 | 150 | 4.3 | 6.1 | 0.12 | 2.68 | 0.68 | 96 | 1013.2 |
| 20260505184142 | 39 | 123 | 2.6 | 4.3 | 0.08 | 2.64 | 0.67 | 96 | 1013.1 |
| 20260505183627 | 39 | 129 | 1.7 | 2.6 | 0.08 | 2.64 | 0.67 | 96 | 1013.1 |
| 20260505183135 | 39 | 104 | 1.7 | 4.3 | 0.08 | 2.64 | 0.67 | 96 | 1013.0 |
| 20260505182639 | 39 | 149 | 1.7 | 4.3 | 0.04 | 2.60 | 0.66 | 96 | 1013.0 |
| 20260505182123 | 39 | 157 | 1.7 | 3.5 | 0.04 | 2.60 | 0.66 | 96 | 1013.0 |
| 20260505181628 | 39 | 159 | 0.9 | 2.6 | 0.04 | 2.60 | 0.66 | 96 | 1013.0 |
| 20260505181131 | 39 | 125 | 1.7 | 3.5 | 0.04 | 2.60 | 0.66 | 96 | 1013.0 |
| 20260505180141 | 39 | 153 | 1.7 | 5.2 | 0.04 | 2.60 | 0.66 | 96 | 1013.0 |
| 20260505175627 | 39 | 134 | 3.5 | 5.2 | 0.04 | 2.60 | 0.66 | 96 | 1012.9 |
| 20260505175131 | 39 | 138 | 1.7 | 3.5 | 0.00 | 2.56 | 0.65 | 96 | 1012.8 |
| 20260505174633 | 39 | 138 | 1.7 | 5.2 | 0.00 | 2.56 | 0.65 | 96 | 1012.9 |
| 20260505174123 | 39 | 135 | 3.5 | 5.2 | 0.00 | 2.56 | 0.65 | 96 | 1012.8 |
| 20260505173628 | 39 | 89 | 2.6 | 5.2 | 0.04 | 2.56 | 0.65 | 96 | 1012.9 |
| 20260505173134 | 39 | 126 | 2.6 | 7.0 | 0.04 | 2.56 | 0.65 | 96 | 1013.0 |
| 20260505172635 | 39 | 125 | 4.3 | 7.0 | 0.04 | 2.56 | 0.65 | 96 | 1012.8 |
| 20260505172140 | 39 | 134 | 2.6 | 5.2 | 0.04 | 2.56 | 0.65 | 96 | 1012.9 |
| 20260505171626 | 39 | 141 | 2.6 | 5.2 | 0.04 | 2.56 | 0.65 | 96 | 1012.8 |
| 20260505171130 | 39 | 123 | 2.6 | 5.2 | 0.04 | 2.56 | 0.65 | 96 | 1012.8 |
| 20260505170635 | 39 | 157 | 0.9 | 4.3 | 0.04 | 2.56 | 0.65 | 96 | 1012.8 |
| 20260505170139 | 39 | 20 | 2.6 | 4.3 | 0.04 | 2.56 | 0.65 | 96 | 1012.8 |
| 20260505165624 | 39 | 92 | 2.6 | 6.1 | 0.04 | 2.56 | 0.65 | 96 | 1012.9 |
| 20260505165128 | 39 | 112 | 3.5 | 6.1 | 0.04 | 2.56 | 0.65 | 96 | 1012.9 |
| 20260505164637 | 39 | 125 | 2.6 | 4.3 | 0.04 | 2.56 | 0.65 | 96 | 1012.9 |
| 20260505164142 | 39 | 117 | 1.7 | 7.0 | 0.00 | 2.52 | 0.64 | 96 | 1013.0 |
| 20260505163626 | 39 | 135 | 4.3 | 7.8 | 0.00 | 2.52 | 0.64 | 96 | 1013.0 |
| 20260505163131 | 39 | 134 | 3.5 | 7.8 | 0.00 | 2.52 | 0.64 | 96 | 1013.0 |
| 20260505162635 | 39 | 119 | 4.3 | 7.8 | 0.00 | 2.52 | 0.64 | 96 | 1013.0 |
| 20260505162140 | 39 | 128 | 5.2 | 7.0 | 0.04 | 2.52 | 0.64 | 96 | 1013.0 |
| 20260505161624 | 39 | 130 | 5.2 | 7.0 | 0.04 | 2.52 | 0.64 | 96 | 1013.0 |
| 20260505161128 | 39 | 140 | 3.5 | 7.0 | 0.04 | 2.52 | 0.64 | 96 | 1013.0 |
| 20260505160633 | 39 | 115 | 4.3 | 7.8 | 0.04 | 2.52 | 0.64 | 96 | 1013.1 |
| 20260505160138 | 39 | 126 | 2.6 | 8.7 | 0.04 | 2.52 | 0.64 | 96 | 1013.2 |
| 20260505153131 | 39 | 135 | 5.2 | 9.6 | 0.16 | 2.52 | 0.64 | 96 | 1013.1 |
| 20260505152635 | 40 | 124 | 4.3 | 10.4 | 0.20 | 2.52 | 0.64 | 96 | 1013.1 |
| 20260505152140 | 39 | 84 | 2.6 | 10.4 | 0.16 | 2.48 | 0.63 | 96 | 1013.1 |
| 20260505151624 | 39 | 104 | 6.1 | 14.8 | 0.16 | 2.48 | 0.63 | 96 | 1013.0 |
| 20260505151130 | 39 | 92 | 9.6 | 14.8 | 0.16 | 2.48 | 0.63 | 96 | 1013.0 |
| 20260505150633 | 40 | 63 | 6.1 | 11.3 | 0.16 | 2.48 | 0.63 | 96 | 1013.0 |
| 20260505150123 | 39 | 132 | 7.0 | 12.2 | 0.16 | 2.48 | 0.63 | 96 | 1013.1 |
| 20260505140631 | 39 | 25 | 1.7 | 7.8 | 0.04 | 2.32 | 0.59 | 96 | 1013.1 |
| 20260505140136 | 39 | 111 | 4.3 | 12.2 | 0.04 | 2.32 | 0.59 | 96 | 1013.1 |
| 20260505130135 | 38 | 214 | 13.9 | 23.5 | 0.12 | 2.28 | 0.58 | 95 | 1013.0 |
| 20260505124631 | 38 | 55 | 13.0 | 22.6 | 0.20 | 2.28 | 0.58 | 95 | 1013.0 |
| 20260505124132 | 38 | 42 | 13.9 | 20.0 | 0.24 | 2.28 | 0.58 | 95 | 1013.0 |
| 20260505123636 | 38 | 96 | 13.9 | 20.0 | 0.24 | 2.24 | 0.57 | 95 | 1012.9 |
| 20260505123141 | 38 | 56 | 10.4 | 18.2 | 0.24 | 2.24 | 0.57 | 95 | 1013.0 |
| 20260505122630 | 38 | 97 | 13.0 | 18.2 | 0.28 | 2.24 | 0.57 | 94 | 1013.0 |
| 20260505122134 | 38 | 80 | 12.2 | 18.2 | 0.24 | 2.20 | 0.56 | 94 | 1013.0 |
| 20260505121639 | 38 | 346 | 9.6 | 19.1 | 0.24 | 2.20 | 0.56 | 93 | 1013.1 |
| 20260505121125 | 38 | 252 | 11.3 | 19.1 | 0.24 | 2.20 | 0.56 | 92 | 1013.0 |
| 20260505120630 | 38 | 86 | 11.3 | 21.7 | 0.24 | 2.17 | 0.55 | 93 | 1013.0 |
| 20260505120135 | 38 | 20 | 10.4 | 21.7 | 0.24 | 2.17 | 0.55 | 93 | 1012.8 |
| 20260505115639 | 38 | 61 | 10.4 | 20.0 | 0.20 | 2.13 | 0.54 | 93 | 1012.9 |
| 20260505115124 | 38 | 112 | 12.2 | 21.7 | 0.24 | 2.13 | 0.54 | 92 | 1013.0 |
| 20260505114630 | 38 | 101 | 13.0 | 23.5 | 0.20 | 2.09 | 0.53 | 92 | 1012.9 |
| 20260505114135 | 38 | 70 | 15.6 | 23.5 | 0.24 | 2.05 | 0.52 | 92 | 1012.8 |
| 20260505113625 | 38 | 93 | 10.4 | 19.1 | 0.20 | 2.01 | 0.51 | 93 | 1012.8 |
| 20260505113130 | 38 | 103 | 9.6 | 19.1 | 0.24 | 2.01 | 0.51 | 93 | 1013.0 |
| 20260505112635 | 38 | 319 | 7.8 | 17.4 | 0.24 | 1.97 | 0.50 | 93 | 1013.0 |
| 20260505112139 | 38 | 327 | 8.7 | 24.3 | 0.24 | 1.97 | 0.50 | 93 | 1012.8 |
| 20260505111623 | 38 | 47 | 9.6 | 24.3 | 0.28 | 1.97 | 0.50 | 93 | 1012.8 |
| 20260505111129 | 38 | 338 | 8.7 | 19.1 | 0.31 | 1.97 | 0.50 | 92 | 1012.7 |
| 20260505110632 | 38 | 273 | 7.8 | 17.4 | 0.28 | 1.93 | 0.49 | 92 | 1012.9 |
| 20260505110136 | 38 | 101 | 8.7 | 21.7 | 0.28 | 1.93 | 0.49 | 91 | 1013.0 |
| 20260505102135 | 37 | 43 | 10.4 | 18.2 | 0.35 | 1.73 | 0.44 | 90 | 1013.1 |
| 20260505101641 | 38 | 274 | 8.7 | 16.5 | 0.31 | 1.69 | 0.43 | 89 | 1012.9 |
| 20260505101125 | 38 | 83 | 8.7 | 23.5 | 0.31 | 1.65 | 0.42 | 90 | 1012.9 |
| 20260505100629 | 38 | 94 | 15.6 | 23.5 | 0.31 | 1.65 | 0.42 | 89 | 1012.6 |
| 20260505100133 | 38 | 65 | 10.4 | 19.1 | 0.31 | 1.65 | 0.42 | 90 | 1012.8 |
| 20260505095638 | 38 | 320 | 9.6 | 20.9 | 0.31 | 1.61 | 0.41 | 91 | 1012.7 |
| 20260505095127 | 37 | 189 | 11.3 | 26.9 | 0.39 | 1.61 | 0.41 | 90 | 1012.5 |
| 20260505094135 | 36 | 80 | 16.5 | 24.3 | 0.39 | 1.46 | 0.37 | 95 | 1012.7 |
| 20260505093638 | 36 | 43 | 8.7 | 13.9 | 0.39 | 1.42 | 0.36 | 94 | 1013.0 |
| 20260505093142 | 36 | 245 | 5.2 | 13.9 | 0.43 | 1.42 | 0.36 | 94 | 1013.0 |
| 20260505092644 | 36 | 186 | 6.1 | 13.9 | 0.43 | 1.38 | 0.35 | 94 | 1012.9 |
| 20260505092129 | 36 | 347 | 6.1 | 16.5 | 0.51 | 1.38 | 0.35 | 94 | 1013.0 |
| 20260505091632 | 36 | 128 | 8.7 | 16.5 | 0.55 | 1.38 | 0.35 | 93 | 1012.8 |
| 20260505091135 | 36 | 145 | 7.8 | 15.6 | 0.55 | 1.34 | 0.34 | 94 | 1012.6 |
| 20260505090639 | 36 | 85 | 7.8 | 14.8 | 0.59 | 1.34 | 0.34 | 93 | 1012.8 |
| 20260505090143 | 35 | 142 | 7.8 | 24.3 | 0.63 | 1.34 | 0.34 | 93 | 1012.7 |
| 20260505085632 | 35 | 167 | 18.2 | 24.3 | 0.59 | 1.30 | 0.33 | 92 | 1012.5 |
| 20260505085137 | 35 | 89 | 12.2 | 20.9 | 0.55 | 1.22 | 0.31 | 93 | 1012.8 |
| 20260505084642 | 35 | 32 | 13.0 | 21.7 | 0.51 | 1.14 | 0.29 | 93 | 1012.7 |
| 20260505084128 | 35 | 239 | 9.6 | 16.5 | 0.47 | 1.06 | 0.27 | 93 | 1012.6 |